Regional Weather Roundup
Issued by NWS Kansas City/Pleasant Hill, MO

Home | Current Version | Previous Version | Graphics & Text | Print | Product List | Glossary Off
Versions: 1 2 3 4 5 6 7 8 9 10 11 12 13 14 15 16 17 18 19 20 21 22 23 24 25 26 27

000
ASUS43 KEAX 291510
RWREAX

WEATHER ROUNDUP FOR EASTERN KANSAS AND NORTHWEST MISSOURI
NATIONAL WEATHER SERVICE KANSAS CITY/PLEASANT HILL MO
1000 AM CDT THU SEP 29 2016

KSZ040-057-103>105-MOZ028-029-037-043-291600-
...KANSAS CITY METROPOLITAN AREA...

CITY           SKY/WX    TMP DP  RH WIND       PRES   REMARKS
K.C. INTL      SUNNY     58  50  75 N10       30.38R
K.C. DOWNTOWN  SUNNY     60  51  72 N7        30.37R
LEES SUMMIT    SUNNY     59  51  75 N9        30.37R
OLATHE - IXD   SUNNY     57  52  83 N10       30.39R
OLATHE - OJC   SUNNY     57  49  74 N10       30.37R
LAWRENCE       SUNNY     60  53  77 NW7       30.40R

$$

MOZ001>008-011>017-020>025-030>033-038>040-044>046-053-054-291600-
...NORTHERN AND CENTRAL MISSOURI...

CITY           SKY/WX    TMP DP  RH WIND       PRES   REMARKS
ST. JOSEPH     SUNNY     59  51  75 N7        30.40R
MOSBY          SUNNY     61  50  67 N7        30.37S
WHITEMAN AFB   MOSUNNY   59  55  87 N8        30.33R
CLINTON        SUNNY     57  54  88 N9        30.34R
SEDALIA        SUNNY     61  51  70 N8        30.33R
WARSAW         NOT AVBL
CHILLICOTHE      N/A     60  52  74 N6        30.36R
KIRKSVILLE     SUNNY     59  51  75 N14       30.33R

$$

MOZ041-047>049-056>058-063>065-088>090-097-291600-
...EASTERN AND SOUTHERN MISSOURI...

CITY           SKY/WX    TMP DP  RH WIND       PRES   REMARKS
ST. LOUIS INTL CLOUDY    58  51  78 NW12G21   30.20R
SPIRIT OF STL  CLOUDY    57  52  83 NW9       30.21R
COLUMBIA       SUNNY     61  52  72 N15       30.28R
JEFFERSON CITY SUNNY     61  50  67 N10       30.27R
ROLLA          SUNNY     57  51  80 NW15      30.25R
OSAGE BEACH    SUNNY     61  50  67 NW8       30.30R
SPRINGFIELD    SUNNY     58  50  75 N12       30.30R
BRANSON        MOSUNNY   57  48  72 N6        30.30R
JOPLIN         SUNNY     57  51  80 N9        30.35R
WEST PLAINS    SUNNY     63  44  50 N10G23    30.25R

$$

IAZ060-094-KSZ022-034>040-054-083-096-NEZ052-066-093-291600-
...KANSAS...SOUTHEAST NEBRASKA AND IOWA...

CITY           SKY/WX    TMP DP  RH WIND       PRES   REMARKS
TOPEKA         SUNNY     59  52  77 N8        30.41R
MANHATTAN      SUNNY     58  51  78 NE6       30.43R
EMPORIA        SUNNY     58  52  80 N5        30.41R
CHANUTE        SUNNY     59  51  75 N9        30.38R
WICHITA        MOSUNNY   59  49  69 N9        30.42R
OMAHA          MOSUNNY   55  49  80 N8        30.45R
LINCOLN        SUNNY     56  50  80 N6        30.47R
FALLS CITY     SUNNY     58  51  78 N6        30.42R
LAMONI         SUNNY     57  52  83 N10       30.38R
DES MOINES     MOSUNNY   61  52  72 NE9       30.39R

$$





USA.gov is the U.S. government's official web portal to all federal, state and local government web resources and services.